GSAT0232 (GALILEO 32)

Last updated on Fri Sep 04 2026 00:02:48 GMT+0000 (Coordinated Universal Time)

1 61182U 24167A 26246.40422786 .00000054 00000+0 00000+0 0 9998 2 61182 55.1687 219.1687 0005925 234.5362 217.7968 1.70473443 12211
UTC large
Height (km)
Speed (km/s)
/
Latitude / Longitude
Inclination (degrees)
Orbital Period (minutes)
Azimuth
Elevation
Range (km)
Doppler Factor

Next 0 passes for location: London (51.5072 / 0.1276)

No passes found over London.
GSAT0232 (GALILEO 32)